Wind_Speed
48 59 66 65 63 61 59 57 54 54 55 58 56 54 52 51 47 42 40 40 39 38 36 33 27 22 20 21 17 25 22 16 21 24 27 30 29 30 31 33 35 38 43 50 57
56 69 69 68 65 63 60 59 57 57 56 58 56 54 51 48 45 42 39 38 36 37 33 28 24 21 23 22 23 25 28 19 22 27 29 31 33 36 38 39 41 43 45 51 53
63 73 73 71 68 65 63 59 58 59 58 57 56 54 52 48 45 42 40 39 38 34 30 26 26 24 22 25 29 29 25 21 24 24 27 32 35 38 41 44 45 47 46 55 56
72 76 76 73 70 68 65 61 60 60 59 58 56 54 52 48 45 43 39 39 38 34 31 31 28 24 26 29 30 30 28 25 23 24 28 33 35 38 44 47 50 52 56 57 65
78 79 78 76 72 70 67 64 63 62 60 58 55 54 53 50 47 44 40 41 39 35 32 29 31 31 29 31 36 35 29 28 28 27 30 34 37 41 46 49 49 54 55 61 69
80 81 80 79 75 72 70 67 65 64 62 60 57 56 55 52 51 47 41 41 40 39 38 33 35 38 35 34 35 33 33 31 32 28 34 40 42 43 50 45 48 54 58 64 71
81 82 82 80 78 74 72 71 69 66 65 61 59 60 58 56 51 48 45 42 43 42 39 36 35 27 34 36 36 32 32 35 38 32 35 43 45 47 47 49 56 62 65 68 72
83 83 83 81 81 78 75 74 72 70 68 65 62 62 61 58 54 50 47 46 44 38 36 32 32 38 40 37 30 28 30 36 40 39 41 43 46 46 48 52 61 69 69 75 76
85 86 85 83 82 81 79 77 75 73 69 66 65 65 61 60 57 54 51 46 48 43 39 44 46 42 38 36 31 29 32 36 38 41 43 46 49 52 57 62 66 68 71 77 81
87 90 87 85 84 83 82 81 79 75 73 70 67 67 64 63 59 56 51 50 50 45 45 48 46 44 43 41 41 39 38 39 40 42 43 47 52 56 64 68 71 73 72 75 84
93 93 91 88 86 85 84 84 81 78 75 72 70 65 64 65 62 58 55 51 52 52 49 49 46 43 43 44 45 44 45 45 48 49 50 55 59 64 69 73 71 72 73 77 85
93 95 94 92 90 88 85 84 84 80 78 75 69 67 67 65 63 58 59 56 53 51 52 56 54 49 48 49 51 51 51 53 55 55 59 62 66 70 70 69 71 76 80 82 87
95 100 99 97 94 91 89 87 87 85 81 77 78 70 67 63 64 61 58 56 53 53 54 53 52 54 56 55 56 56 57 58 59 58 59 63 66 67 69 73 77 82 84 86 92
99 100 103 103 99 96 92 90 87 86 85 80 76 73 71 67 66 62 63 61 58 60 61 60 61 62 61 58 59 60 60 59 60 63 64 66 65 66 72 75 79 84 87 91 94
97 103 104 105 104 100 96 95 91 88 87 86 82 78 76 71 71 67 67 64 62 63 62 62 62 62 64 62 62 64 64 64 64 64 68 71 68 70 72 74 79 83 89 94 97
102 104 107 107 107 105 102 101 97 93 86 86 84 81 78 74 73 70 69 67 64 63 65 65 65 67 68 65 64 64 67 68 68 69 70 70 70 73 75 77 81 88 91 95 100
110 107 109 110 110 109 109 106 103 95 91 87 86 84 83 79 76 74 72 70 66 66 67 67 67 68 68 69 69 70 71 71 72 73 73 73 73 75 80 82 86 91 96 98 103
119 115 111 115 113 114 113 112 105 95 95 90 90 88 85 84 81 79 75 72 71 70 69 69 69 71 70 71 71 71 73 74 75 75 74 76 78 81 86 88 92 98 100 102 105
125 124 119 116 117 119 118 115 103 98 100 97 94 91 89 86 84 83 79 77 76 75 73 72 72 73 71 71 72 73 75 76 77 77 76 80 84 86 87 93 98 99 104 107 108
125 129 128 126 118 124 123 113 107 103 106 102 96 93 91 89 88 86 84 82 81 78 76 75 74 75 74 75 74 76 78 79 80 80 80 81 85 91 94 96 98 105 109 111 111
107 131 134 130 127 123 123 113 108 109 112 107 100 97 93 91 92 91 88 85 84 81 80 78 76 76 76 76 77 79 81 82 84 85 84 83 88 94 96 100 104 108 111 112 115
90 111 138 135 133 123 116 115 113 116 115 110 103 100 97 96 96 92 87 87 86 84 83 81 79 78 79 80 82 84 85 87 88 88 89 88 89 94 99 102 105 109 111 113 116
74 97 116 139 137 126 116 115 118 122 117 115 108 105 102 100 98 92 89 87 87 86 85 84 83 83 83 83 85 86 88 90 90 92 95 94 92 97 102 103 107 109 111 114 117
71 81 103 115 135 131 124 118 118 124 123 118 111 110 107 103 97 92 89 88 89 89 87 87 86 85 86 85 86 90 93 94 93 93 94 101 99 102 103 107 108 110 114 117 120
67 75 87 95 111 131 131 124 120 125 126 122 117 114 110 107 101 95 91 91 91 90 89 87 87 87 88 88 89 92 94 96 97 99 99 102 103 105 109 109 111 114 117 119 122
68 73 81 90 101 121 136 132 127 125 125 128 121 116 112 108 102 98 98 99 98 95 92 90 91 91 91 92 95 98 100 102 103 103 102 102 106 108 109 111 114 117 118 122 123
66 70 76 83 96 107 127 133 129 131 126 125 122 119 115 111 108 104 105 104 99 97 95 96 96 95 95 98 100 102 103 104 104 102 104 106 106 109 113 115 117 119 123 124 128
Wind_Direction
195 185 182 181 182 183 184 185 183 183 183 183 185 186 187 189 191 193 195 200 204 210 214 219 229 230 241 246 249 260 271 285 297 303 313 317 319 319 323 325 325 330 329 332 333
193 185 183 183 185 186 188 187 186 186 187 187 189 190 190 192 193 197 201 205 209 211 218 224 229 233 239 252 255 262 278 283 295 305 311 313 319 326 328 326 327 327 329 335 331
192 187 186 186 187 189 190 190 189 189 189 190 193 195 195 195 197 199 206 207 211 215 216 223 230 242 254 265 271 272 274 285 294 303 308 317 324 325 323 324 324 325 332 333 329
192 189 189 188 189 191 193 193 193 192 193 194 195 197 198 196 197 203 207 211 215 217 224 230 250 251 258 260 267 266 282 293 302 307 311 316 320 319 320 322 326 331 331 329 328
193 191 191 191 192 193 194 195 195 195 196 195 195 197 199 198 201 205 210 217 221 226 234 242 249 250 247 251 265 278 283 287 292 306 309 310 318 320 318 325 328 323 323 324 326
196 194 193 195 194 195 196 196 197 198 197 197 198 199 200 202 205 210 215 220 226 227 234 244 248 255 264 266 266 272 286 289 295 304 314 315 317 322 327 322 317 316 319 321 324
199 198 198 197 198 198 199 198 200 199 199 200 202 203 203 205 210 214 217 222 227 229 236 250 248 250 254 257 267 280 286 290 294 310 307 317 325 328 321 316 318 320 320 320 323
202 201 200 200 201 201 200 202 201 202 202 204 205 208 208 209 214 217 221 225 228 237 240 236 236 240 250 257 268 279 285 290 296 307 313 315 317 315 312 313 314 316 318 321 323
205 204 203 203 203 205 204 204 203 204 205 206 209 212 212 214 217 222 226 230 232 236 237 236 237 248 257 262 267 272 278 282 292 300 306 308 308 314 311 310 313 316 317 320 323
209 205 206 205 205 207 208 206 206 207 209 210 212 214 215 218 220 223 227 231 235 239 240 244 247 252 258 264 267 271 272 281 286 292 295 299 301 302 306 309 310 312 316 317 322
210 209 208 208 208 209 210 211 210 211 212 213 216 217 220 221 226 228 231 233 236 241 244 249 254 257 261 266 269 270 273 278 282 289 294 297 298 301 304 307 310 311 314 319 321
214 210 209 211 211 210 212 214 213 214 214 215 216 219 221 223 227 231 234 237 237 242 247 249 251 258 262 266 272 277 281 283 287 293 297 301 303 305 310 310 313 315 317 320 322
214 214 212 211 212 213 213 214 216 215 216 214 217 217 222 224 230 231 235 237 240 240 246 249 254 258 264 269 274 278 282 288 293 298 304 307 309 311 311 314 315 316 318 320 321
215 215 214 213 213 214 214 215 216 218 217 217 217 220 222 222 227 230 230 237 240 243 247 252 256 261 265 272 276 279 284 288 295 299 304 307 307 307 310 311 312 315 316 317 318
218 216 216 215 215 215 215 216 216 217 218 219 220 223 225 225 228 229 232 237 241 245 251 254 258 262 266 271 276 281 284 289 294 297 302 305 307 308 308 309 312 313 312 314 315
215 220 218 218 217 216 216 218 217 218 218 220 221 223 226 228 231 232 235 238 241 246 251 256 259 263 268 273 276 279 283 288 294 298 302 305 306 306 309 311 311 310 311 312 316
216 215 221 220 220 218 218 218 219 219 221 222 224 225 226 228 231 233 236 239 243 247 252 256 259 263 268 272 276 280 286 290 294 297 300 302 304 306 307 308 308 309 310 313 315
217 218 218 223 222 221 220 220 219 219 222 223 226 228 229 230 232 236 238 241 244 248 251 255 259 264 269 273 278 281 285 289 292 296 298 300 302 303 304 307 308 308 309 313 315
220 220 220 221 224 224 223 222 220 219 224 224 226 228 231 234 236 238 240 242 246 249 252 256 260 265 268 273 277 280 283 287 290 293 296 298 300 302 304 306 306 307 310 312 315
220 220 222 222 222 225 225 223 222 221 225 225 225 227 231 233 235 238 240 242 245 249 253 256 260 265 270 274 277 280 282 285 287 290 291 294 298 301 303 303 306 309 311 314 317
223 221 223 223 223 224 226 224 223 225 227 226 227 229 231 234 237 238 240 243 247 251 254 257 261 265 270 274 276 278 280 282 285 288 291 295 299 300 300 304 307 309 312 315 318
227 225 223 223 224 225 225 224 225 227 228 229 227 230 231 233 236 238 242 245 249 251 254 257 260 263 266 269 272 275 278 280 284 289 291 295 295 296 299 302 305 308 311 314 317
228 227 226 222 224 223 224 225 226 229 230 230 229 231 232 234 238 241 243 246 249 251 254 257 259 262 266 269 272 275 278 280 284 287 289 292 294 295 297 300 304 308 310 313 316
232 230 229 226 223 224 223 224 227 230 232 232 231 231 233 234 237 240 242 246 250 252 253 256 259 262 265 268 271 275 277 280 283 285 288 291 294 295 298 302 305 307 311 314 316
239 235 230 228 226 224 224 224 224 229 231 233 233 233 234 236 238 239 242 245 248 251 253 257 261 263 265 268 271 274 277 280 283 286 288 290 293 297 299 303 305 308 311 314 317
243 235 230 223 222 220 222 224 225 228 231 233 233 234 235 238 239 240 241 243 245 248 252 256 258 261 264 267 270 273 276 279 281 284 288 289 292 296 299 302 305 308 311 313 316
242 233 230 221 219 218 220 222 225 227 229 233 234 235 235 236 239 240 243 245 247 250 253 256 259 262 266 269 272 275 277 279 281 284 287 290 293 297 300 304 307 309 311 313 315
Height
10836 10842 10847 10854 10861 10867 10873 10879 10885 10891 10897 10901 10905 10910 10913 10916 10920 10925 10928 10931 10934 10937 10939 10940 10943 10947 10949 10949 10952 10951 10951 10948 10946 10943 10941 10940 10942 10940 10938 10935 10931 10927 10920 10912 10903
10832 10839 10844 10851 10858 10864 10871 10877 10882 10889 10894 10900 10904 10909 10912 10915 10920 10923 10927 10930 10933 10936 10938 10939 10943 10945 10946 10947 10949 10949 10949 10947 10944 10940 10936 10934 10933 10931 10928 10924 10922 10919 10916 10911 10901
10827 10834 10840 10847 10853 10860 10867 10874 10880 10886 10892 10897 10903 10907 10910 10915 10919 10922 10925 10928 10931 10934 10936 10938 10939 10941 10943 10944 10945 10946 10946 10945 10943 10940 10935 10931 10927 10923 10919 10917 10915 10912 10910 10906 10896
10821 10829 10835 10841 10849 10855 10863 10871 10877 10883 10888 10894 10899 10904 10909 10913 10917 10920 10923 10927 10929 10932 10935 10937 10937 10938 10941 10940 10941 10943 10942 10941 10939 10937 10932 10928 10925 10921 10915 10910 10906 10900 10898 10895 10888
10815 10822 10829 10836 10843 10851 10858 10866 10873 10879 10885 10890 10895 10900 10905 10910 10913 10916 10920 10923 10926 10930 10932 10935 10934 10934 10937 10938 10937 10937 10937 10935 10935 10935 10931 10927 10926 10922 10915 10907 10900 10894 10890 10885 10876
10808 10815 10823 10831 10837 10845 10852 10860 10867 10874 10880 10886 10891 10895 10900 10904 10907 10912 10916 10919 10922 10925 10929 10932 10931 10930 10933 10933 10931 10931 10928 10927 10926 10930 10924 10918 10920 10914 10906 10901 10895 10889 10884 10880 10870
10801 10809 10816 10824 10832 10838 10846 10853 10861 10868 10874 10881 10886 10889 10894 10900 10905 10907 10911 10914 10917 10921 10925 10929 10929 10928 10929 10929 10927 10925 10923 10919 10916 10921 10920 10910 10908 10905 10900 10893 10885 10879 10873 10868 10863
10793 10801 10809 10817 10825 10831 10838 10846 10853 10861 10867 10875 10880 10884 10890 10895 10899 10903 10907 10911 10914 10918 10920 10924 10926 10925 10923 10924 10923 10921 10918 10912 10908 10911 10910 10907 10904 10905 10899 10892 10885 10876 10866 10857 10850
10784 10793 10801 10810 10817 10824 10830 10838 10846 10853 10862 10868 10875 10878 10886 10889 10894 10899 10902 10905 10910 10913 10916 10918 10920 10918 10916 10918 10919 10919 10916 10911 10909 10907 10906 10905 10902 10901 10895 10889 10881 10871 10862 10849 10840
10774 10783 10793 10801 10808 10815 10822 10830 10839 10848 10854 10862 10866 10872 10879 10882 10889 10892 10896 10900 10904 10908 10911 10912 10911 10912 10912 10913 10916 10915 10914 10909 10908 10905 10906 10902 10899 10896 10889 10883 10875 10865 10859 10848 10836
10764 10773 10784 10791 10798 10805 10814 10824 10832 10841 10848 10856 10861 10871 10876 10878 10882 10887 10889 10893 10898 10901 10905 10904 10904 10906 10905 10906 10908 10907 10907 10906 10903 10902 10899 10895 10890 10885 10879 10872 10865 10856 10851 10842 10830
10753 10762 10772 10780 10788 10795 10806 10816 10823 10831 10838 10848 10853 10858 10862 10869 10874 10878 10882 10886 10891 10896 10898 10896 10899 10899 10899 10899 10900 10898 10898 10896 10892 10894 10891 10886 10880 10872 10865 10858 10852 10843 10837 10830 10820
10739 10751 10759 10767 10776 10786 10794 10802 10811 10820 10830 10838 10841 10847 10853 10862 10865 10871 10875 10881 10887 10890 10890 10890 10894 10893 10891 10894 10891 10891 10889 10887 10883 10881 10882 10876 10870 10862 10853 10845 10836 10830 10823 10817 10809
10723 10736 10745 10753 10765 10772 10787 10791 10804 10812 10821 10830 10836 10839 10846 10851 10856 10864 10868 10874 10880 10880 10882 10884 10886 10887 10882 10887 10882 10882 10880 10879 10875 10869 10869 10869 10866 10857 10845 10839 10830 10820 10811 10806 10797
10710 10721 10731 10740 10750 10760 10774 10777 10791 10798 10810 10816 10828 10830 10839 10846 10848 10855 10860 10865 10870 10871 10875 10875 10878 10879 10875 10877 10875 10872 10870 10868 10867 10865 10859 10857 10856 10848 10841 10833 10824 10814 10805 10799 10787
10692 10706 10715 10725 10735 10747 10756 10762 10775 10784 10803 10810 10817 10823 10831 10836 10838 10845 10850 10855 10862 10865 10864 10867 10869 10869 10868 10868 10867 10865 10862 10859 10855 10853 10850 10847 10844 10839 10830 10825 10815 10804 10797 10789 10776
10677 10687 10700 10707 10719 10729 10737 10744 10758 10781 10788 10803 10808 10812 10817 10824 10827 10834 10839 10846 10854 10856 10856 10859 10860 10858 10860 10860 10859 10855 10852 10849 10847 10843 10838 10836 10836 10830 10820 10815 10805 10794 10784 10777 10764
10658 10672 10681 10688 10704 10710 10718 10729 10750 10777 10776 10789 10794 10798 10808 10813 10818 10824 10831 10838 10842 10845 10849 10850 10850 10849 10851 10850 10850 10846 10843 10839 10835 10833 10830 10825 10822 10817 10809 10801 10790 10779 10768 10762 10754
10637 10652 10664 10667 10685 10688 10699 10717 10753 10767 10761 10771 10777 10788 10796 10806 10810 10814 10821 10827 10830 10835 10839 10841 10839 10839 10842 10841 10839 10837 10832 10828 10824 10822 10821 10814 10806 10801 10797 10787 10775 10763 10754 10747 10737
10619 10630 10639 10644 10660 10668 10682 10716 10739 10752 10741 10754 10768 10776 10784 10791 10794 10800 10806 10814 10816 10824 10828 10830 10832 10828 10830 10830 10829 10825 10821 10818 10815 10813 10811 10809 10800 10787 10782 10774 10762 10750 10736 10727 10717
10599 10611 10613 10629 10638 10648 10677 10715 10731 10732 10720 10741 10759 10764 10774 10779 10781 10785 10794 10803 10806 10814 10816 10820 10822 10819 10820 10819 10817 10813 10810 10807 10802 10800 10798 10799 10791 10778 10768 10758 10747 10735 10722 10712 10702
10581 10589 10591 10610 10622 10645 10678 10703 10713 10705 10711 10728 10747 10751 10759 10761 10762 10776 10790 10794 10795 10800 10801 10807 10809 10809 10808 10808 10805 10800 10798 10793 10790 10787 10785 10787 10787 10773 10758 10749 10739 10727 10715 10704 10696
10561 10564 10567 10586 10602 10639 10664 10681 10690 10686 10699 10711 10733 10735 10743 10746 10753 10771 10781 10783 10783 10785 10789 10792 10796 10796 10796 10797 10793 10789 10783 10780 10779 10777 10772 10769 10770 10762 10748 10742 10732 10719 10707 10697 10685
10539 10544 10552 10572 10598 10622 10640 10660 10672 10669 10676 10695 10714 10721 10723 10732 10748 10761 10768 10768 10769 10771 10775 10777 10781 10783 10783 10784 10781 10774 10769 10766 10767 10766 10766 10750 10754 10743 10732 10726 10717 10704 10694 10681 10668
10520 10529 10540 10565 10583 10608 10621 10640 10651 10647 10660 10675 10692 10703 10714 10723 10739 10749 10755 10751 10754 10759 10761 10766 10769 10769 10769 10772 10767 10761 10754 10751 10751 10750 10750 10743 10736 10725 10716 10708 10699 10688 10678 10665 10656
10501 10507 10519 10542 10553 10570 10587 10612 10628 10631 10640 10652 10675 10690 10705 10715 10729 10732 10731 10728 10734 10741 10750 10755 10754 10753 10756 10754 10752 10747 10743 10738 10736 10737 10737 10731 10724 10713 10702 10695 10685 10676 10663 10654 10644
10483 10489 10497 10513 10526 10542 10568 10594 10605 10604 10619 10633 10660 10675 10688 10700 10706 10711 10709 10715 10727 10732 10737 10739 10739 10739 10742 10738 10734 10732 10726 10721 10722 10727 10721 10712 10706 10697 10686 10676 10667 10658 10648 10638 10626